| time (UTC) | temp F | wind direction | speed MPH | gust MPH | rain 1hr in | rain 24hr in | rain mn in | humidity % | barometer mb |
| 20260505123812 | 60 | 192 | 5.0 | 9.0 | 0.00 | 0.00 | 0.00 | 91 | 1031.4 |
| 20260505122312 | 61 | 207 | 6.0 | 9.0 | 0.00 | 0.00 | 0.00 | 90 | 1031.5 |
| 20260505121503 | 61 | 188 | 6.0 | 8.0 | 0.00 | 0.00 | 0.00 | 90 | 1031.5 |
| 20260505115310 | 60 | 164 | 2.0 | 7.0 | 0.00 | 0.00 | 0.00 | 90 | 1031.5 |
| 20260505113806 | 61 | 176 | 4.0 | 8.0 | 0.00 | 0.00 | 0.00 | 90 | 1031.5 |
| 20260505112304 | 61 | 211 | 5.0 | 8.0 | 0.00 | 0.00 | 0.00 | 90 | 1031.7 |
| 20260505110800 | 61 | 186 | 3.0 | 6.0 | 0.00 | 0.00 | 0.00 | 89 | 1031.9 |
| 20260505100748 | 61 | 202 | 4.0 | 7.0 | 0.00 | 0.00 | 0.00 | 89 | 1032.1 |
| 20260505095248 | 61 | 193 | 4.0 | 7.0 | 0.00 | 0.00 | 0.00 | 89 | 1032.2 |
| 20260505093743 | 62 | 175 | 4.0 | 6.0 | 0.00 | 0.00 | 0.00 | 89 | 1032.2 |
| 20260505093646 | 62 | 149 | 2.0 | 7.0 | 0.00 | 0.00 | 0.00 | 89 | 1032.2 |
| 20260505090740 | 64 | 103 | 2.0 | 6.0 | 0.00 | 0.00 | 0.00 | 90 | 1032.1 |
| 20260505085241 | 64 | 121 | 2.0 | 6.0 | 0.00 | 0.00 | 0.00 | 90 | 1032.1 |
| 20260505083737 | 63 | 44 | 0.0 | 6.0 | 0.00 | 0.00 | 0.00 | 89 | 1032.1 |
| 20260505082236 | 62 | 97 | 2.0 | 6.0 | 0.00 | 0.00 | 0.00 | 89 | 1032.0 |
| 20260505080732 | 62 | 155 | 1.0 | 3.0 | 0.00 | 0.00 | 0.00 | 87 | 1032.0 |
| 20260505075932 | 63 | 144 | 1.0 | 2.0 | 0.00 | 0.00 | 0.00 | 87 | 1032.0 |
| 20260505073723 | 63 | 146 | 2.0 | 6.0 | 0.00 | 0.00 | 0.00 | 87 | 1031.9 |
| 20260505072219 | 63 | 107 | 2.0 | 4.0 | 0.00 | 0.00 | 0.00 | 87 | 1031.9 |
| 20260505070724 | 63 | 86 | 3.0 | 7.0 | 0.00 | 0.00 | 0.00 | 87 | 1031.8 |
| 20260505065216 | 63 | 101 | 3.0 | 7.0 | 0.00 | 0.00 | 0.00 | 86 | 1031.8 |
| 20260505063716 | 63 | 93 | 3.0 | 7.0 | 0.00 | 0.00 | 0.00 | 86 | 1031.7 |
| 20260505062213 | 63 | 91 | 3.0 | 9.0 | 0.00 | 0.00 | 0.00 | 85 | 1031.6 |
| 20260505060713 | 63 | 93 | 4.0 | 8.0 | 0.00 | 0.00 | 0.00 | 85 | 1031.5 |
| 20260505055207 | 64 | 75 | 4.0 | 10.0 | 0.00 | 0.00 | 0.00 | 84 | 1031.4 |
| 20260505053708 | 64 | 114 | 5.0 | 8.0 | 0.00 | 0.00 | 0.00 | 83 | 1031.5 |
| 20260505052159 | 64 | 99 | 4.0 | 7.0 | 0.00 | 0.00 | 0.00 | 83 | 1031.5 |
| 20260505050707 | 64 | 94 | 4.0 | 7.0 | 0.00 | 0.00 | 0.00 | 82 | 1031.6 |
| 20260505040653 | 64 | 122 | 4.0 | 8.0 | 0.00 | 0.00 | 0.00 | 82 | 1031.8 |
| 20260505035144 | 64 | 136 | 4.0 | 8.0 | 0.00 | 0.00 | 0.00 | 81 | 1031.8 |
| 20260505034342 | 64 | 99 | 4.0 | 8.0 | 0.00 | 0.00 | 0.00 | 81 | 1031.9 |
| 20260505032143 | 64 | 94 | 4.0 | 8.0 | 0.00 | 0.00 | 0.00 | 80 | 1031.8 |
| 20260505030639 | 64 | 88 | 4.0 | 9.0 | 0.00 | 0.00 | 0.00 | 79 | 1031.8 |
| 20260505025831 | 64 | 107 | 5.0 | 10.0 | 0.00 | 0.00 | 0.00 | 78 | 1031.8 |
| 20260505023634 | 64 | 94 | 6.0 | 9.0 | 0.00 | 0.00 | 0.00 | 78 | 1031.8 |
| 20260505022124 | 64 | 134 | 4.0 | 8.0 | 0.00 | 0.00 | 0.00 | 77 | 1031.8 |
| 20260505020632 | 64 | 90 | 4.0 | 8.0 | 0.00 | 0.00 | 0.00 | 76 | 1032.0 |
| 20260505015121 | 64 | 117 | 5.0 | 8.0 | 0.00 | 0.00 | 0.00 | 75 | 1032.0 |
| 20260505014315 | 64 | 117 | 4.0 | 8.0 | 0.00 | 0.00 | 0.00 | 77 | 1032.1 |
| 20260505012118 | 64 | 110 | 4.0 | 8.0 | 0.00 | 0.00 | 0.00 | 77 | 1032.3 |
| 20260505010623 | 64 | 109 | 4.0 | 8.0 | 0.00 | 0.00 | 0.00 | 77 | 1032.4 |
| 20260505005114 | 64 | 93 | 5.0 | 9.0 | 0.00 | 0.00 | 0.00 | 78 | 1032.7 |
| 20260505003609 | 64 | 119 | 5.0 | 9.0 | 0.00 | 0.00 | 0.00 | 77 | 1032.9 |
| 20260505002110 | 64 | 109 | 4.0 | 8.0 | 0.00 | 0.00 | 0.00 | 76 | 1033.1 |
| 20260505002025 | 65 | 165 | 3.0 | 6.0 | 0.00 | 0.00 | 0.00 | 70 | 1033.2 |
| 20260504235101 | 66 | 159 | 2.0 | 5.0 | 0.00 | 0.00 | 0.00 | 71 | 1033.4 |
| 20260504233602 | 65 | 100 | 1.0 | 5.0 | 0.00 | 0.00 | 0.00 | 71 | 1033.6 |
| 20260504232748 | 65 | 196 | 3.0 | 6.0 | 0.00 | 0.00 | 0.00 | 70 | 1033.9 |
| 20260504230554 | 66 | 180 | 4.0 | 7.0 | 0.00 | 0.00 | 0.00 | 70 | 1033.9 |
| 20260504225759 | 67 | 227 | 2.0 | 7.0 | 0.00 | 0.00 | 0.00 | 72 | 1034.2 |
| 20260504223549 | 65 | 191 | 2.0 | 6.0 | 0.00 | 0.00 | 0.00 | 75 | 1034.0 |
| 20260504222747 | 64 | 223 | 2.0 | 8.0 | 0.00 | 0.00 | 0.00 | 76 | 1034.0 |
| 20260504220545 | 63 | 203 | 4.0 | 8.0 | 0.00 | 0.00 | 0.00 | 76 | 1033.9 |
| 20260504215754 | 62 | 173 | 4.0 | 6.0 | 0.00 | 0.00 | 0.00 | 77 | 1033.8 |
| 20260504213541 | 62 | 206 | 3.0 | 4.0 | 0.00 | 0.00 | 0.00 | 78 | 1033.9 |
| 20260504212037 | 61 | 167 | 2.0 | 6.0 | 0.00 | 0.00 | 0.00 | 79 | 1033.9 |
| 20260504210537 | 61 | 189 | 3.0 | 6.0 | 0.00 | 0.00 | 0.00 | 80 | 1033.9 |
| 20260504205033 | 60 | 201 | 4.0 | 6.0 | 0.00 | 0.00 | 0.00 | 82 | 1033.8 |
| 20260504203528 | 60 | 190 | 2.0 | 5.0 | 0.00 | 0.00 | 0.00 | 85 | 1033.9 |
| 20260504202029 | 59 | 188 | 2.0 | 5.0 | 0.00 | 0.00 | 0.00 | 86 | 1033.8 |
| 20260504200525 | 59 | 215 | 2.0 | 3.0 | 0.00 | 0.00 | 0.00 | 87 | 1033.8 |
| 20260504195735 | 59 | 188 | 1.0 | 3.0 | 0.00 | 0.00 | 0.00 | 86 | 1033.6 |
| 20260504193522 | 58 | 191 | 2.0 | 4.0 | 0.00 | 0.00 | 0.00 | 86 | 1033.5 |
| 20260504192012 | 58 | 180 | 2.0 | 3.0 | 0.00 | 0.00 | 0.00 | 86 | 1033.4 |
| 20260504191219 | 58 | 201 | 0.0 | 4.0 | 0.00 | 0.00 | 0.00 | 85 | 1033.3 |
| 20260504185702 | 58 | 196 | 3.0 | 4.0 | 0.00 | 0.00 | 0.00 | 85 | 1033.2 |
| 20260504183504 | 58 | 205 | 2.0 | 5.0 | 0.00 | 0.00 | 0.00 | 85 | 1033.2 |
| 20260504182005 | 58 | 199 | 2.0 | 5.0 | 0.00 | 0.00 | 0.00 | 83 | 1033.3 |
| 20260504180500 | 58 | 217 | 2.0 | 5.0 | 0.00 | 0.00 | 0.00 | 83 | 1033.4 |
| 20260504174956 | 58 | 196 | 3.0 | 6.0 | 0.00 | 0.00 | 0.00 | 83 | 1033.3 |
| 20260504173451 | 58 | 190 | 3.0 | 8.0 | 0.00 | 0.00 | 0.00 | 83 | 1033.2 |
| 20260504171947 | 58 | 204 | 4.0 | 5.0 | 0.00 | 0.00 | 0.00 | 83 | 1033.3 |
| 20260504171149 | 58 | 197 | 4.0 | 6.0 | 0.00 | 0.00 | 0.00 | 83 | 1033.2 |
| 20260504160435 | 58 | 203 | 3.0 | 6.0 | 0.00 | 0.00 | 0.00 | 85 | 1033.4 |
| 20260504150427 | 58 | 194 | 3.0 | 7.0 | 0.00 | 0.00 | 0.00 | 85 | 1034.0 |
| 20260504140409 | 58 | 214 | 4.0 | 8.0 | 0.00 | 0.00 | 0.00 | 83 | 1034.5 |
| 20260504130402 | 58 | 184 | 3.0 | 6.0 | 0.00 | 0.00 | 0.00 | 83 | 1034.8 |